This is the latest recevied weather packets stored in our database for station/object SP5IZJ-2. If no packets are shown the sender has not sent any weather packets the latest 10 day(s).
| Time | Temp. | Humidity | Pressure | Rain* | Wind** | Luminosity | Snow |
|---|---|---|---|---|---|---|---|
| 1777502774 | -2.78° C | 71% | 1023.1 hPa | 0 mm | - | - | - |
| 1777502354 | -2.78° C | 71% | 1023.2 hPa | 0 mm | - | - | - |
| 1777501935 | -2.78° C | 70% | 1023 hPa | 0 mm | - | - | - |
| 1777501525 | -2.22° C | 69% | 1023.1 hPa | 0 mm | - | - | - |
| 1777500675 | -2.22° C | 69% | 1023.1 hPa | 0 mm | - | - | - |
| 1777500255 | -1.67° C | 69% | 1023.1 hPa | 0 mm | - | - | - |
| 1777499835 | -1.67° C | 68% | 1023 hPa | 0 mm | - | - | - |
| 1777499420 | -1.67° C | 68% | 1023 hPa | 0 mm | - | - | - |
| 1777499000 | -1.11° C | 68% | 1023 hPa | 0 mm | - | - | - |
| 1777498576 | -1.11° C | 66% | 1022.8 hPa | 0 mm | - | - | - |
| 1777498156 | -0.56° C | 66% | 1023 hPa | 0 mm | - | - | - |
| 1777497321 | -0.56° C | 67% | 1022.8 hPa | 0 mm | - | - | - |
| 1777496477 | 0° C | 66% | 1022.8 hPa | 0 mm | - | - | - |
| 1777496057 | 0° C | 64% | 1022.7 hPa | 0 mm | - | - | - |
| 1777495637 | 0.56° C | 63% | 1022.7 hPa | 0 mm | - | - | - |
| 1777495224 | 0.56° C | 65% | 1022.6 hPa | 0 mm | - | - | - |
| 1777494802 | 0.56° C | 65% | 1022.7 hPa | 0 mm | - | - | - |
| 1777494701 | 0° C | 64% | 1022.7 hPa | 0 mm | - | - | - |
| 1777494281 | 0° C | 64% | 1022.7 hPa | 0 mm | - | - | - |
| 1777493861 | 0° C | 63% | 1022.7 hPa | 0 mm | - | - | - |
| 1777493442 | 0.56° C | 62% | 1022.6 hPa | 0 mm | - | - | - |
| 1777493022 | 0.56° C | 61% | 1022.3 hPa | 0 mm | - | - | - |
| 1777492609 | 0.56° C | 59% | 1022.5 hPa | 0 mm | - | - | - |
| 1777492182 | 1.11° C | 58% | 1022.6 hPa | 0 mm | - | - | - |
| 1777491762 | 1.11° C | 57% | 1022.5 hPa | 0 mm | - | - | - |
* Rain latest hour (hover to see other rain measurements)
** Current wind speed in m/s (hover to see current wind gust speed)